Wind_Speed
7 7 7 8 9 9 9 9 10 12 13 13 14 14 15 15 15 15 15 15 16 16 16 16 15 15 15 14 15 15 14 15 15 16 15 15 15 15 15 15 15 15 16 16
8 8 8 9 9 9 9 10 10 12 13 13 14 14 14 15 15 15 15 15 15 15 15 16 16 15 15 15 15 16 16 16 15 16 16 16 16 16 15 15 16 16 16 17
8 9 9 9 9 9 9 10 11 12 12 13 13 14 14 15 15 15 15 15 15 15 15 15 15 15 14 15 15 15 15 16 16 16 17 17 17 17 17 16 16 16 17 17
9 9 9 9 9 9 9 10 11 12 12 12 13 14 14 14 14 14 14 15 16 15 15 15 14 13 13 13 14 15 15 15 16 16 16 17 16 17 17 17 17 17 17 18
10 9 9 9 9 9 9 10 11 11 12 12 12 14 14 14 14 14 14 14 16 16 16 15 14 13 13 14 14 15 15 15 15 16 16 16 16 17 17 17 18 18 19 19
10 10 9 9 9 9 10 10 10 10 11 12 12 14 14 15 15 15 14 14 15 14 14 14 13 14 14 14 15 15 15 16 16 17 17 17 17 17 18 18 19 19 19 20
10 10 10 10 10 10 10 10 10 10 11 12 13 15 15 16 16 16 16 15 14 13 13 14 14 14 14 14 15 15 15 16 16 17 18 18 18 19 19 19 19 19 19 19
12 12 12 11 11 11 11 11 11 11 10 12 14 16 17 16 17 17 17 16 14 14 14 14 15 15 14 14 15 15 16 17 17 18 18 19 19 20 20 20 20 20 20 20
13 14 13 13 13 12 12 12 12 13 13 13 14 16 17 17 16 16 16 15 15 14 14 15 15 15 15 15 16 16 17 18 18 18 19 20 21 21 21 21 21 21 21 21
14 15 14 13 13 13 13 13 13 13 14 14 13 14 16 16 16 16 16 16 15 15 15 15 16 16 16 16 17 18 18 19 19 19 20 21 22 22 22 22 22 22 21 21
14 15 15 14 13 14 13 13 13 14 14 14 14 14 16 17 17 16 15 15 16 16 16 16 16 16 17 17 18 19 19 20 20 21 21 21 22 22 23 23 23 23 22 21
14 14 15 14 13 14 14 14 14 15 15 15 16 16 17 17 17 17 16 16 16 16 16 17 16 17 17 18 19 19 20 21 21 22 22 22 22 23 23 23 23 22 22 21
14 14 14 14 14 13 15 15 15 15 15 16 15 15 17 17 17 17 17 17 17 17 17 17 17 17 18 19 20 20 21 22 22 22 22 22 22 23 22 22 21 20 20 20
15 15 15 14 15 15 15 16 16 16 16 17 16 16 17 18 17 18 18 18 17 17 18 18 18 18 19 19 20 21 22 22 23 23 22 22 22 22 22 21 20 19 19 19
16 16 16 16 16 17 16 17 17 17 17 18 17 18 19 19 19 19 19 19 19 18 19 18 19 19 20 20 21 22 23 23 24 23 22 22 22 21 21 21 21 20 19 19
17 17 18 18 18 19 18 17 17 18 18 20 20 20 20 21 21 21 20 20 20 20 20 20 20 21 21 22 22 22 23 23 24 23 23 22 21 21 21 21 21 20 20 20
20 19 19 19 19 20 20 18 18 19 20 21 22 22 22 22 22 22 22 22 21 21 21 21 21 22 22 23 23 23 22 23 23 23 23 22 22 22 22 22 22 21 21 21
21 21 20 20 20 21 20 19 19 20 20 21 22 23 23 23 23 23 23 23 22 22 23 23 23 23 23 23 23 23 23 23 23 23 23 23 22 22 22 22 22 22 22 22
23 22 22 21 21 21 21 19 20 22 22 21 22 23 23 23 24 24 24 23 23 24 24 24 24 24 24 24 24 24 24 24 24 23 23 23 23 23 23 23 23 23 23 24
23 23 23 23 22 22 21 20 21 23 24 23 23 23 24 24 24 23 23 23 23 24 24 24 25 25 25 25 25 25 24 24 23 24 24 24 23 23 24 24 24 24 25 25
23 23 23 24 24 25 22 22 23 24 25 25 25 24 25 25 24 24 24 24 24 25 25 25 25 25 25 26 25 25 24 24 24 24 24 25 25 25 24 25 25 26 26 26
23 24 24 24 25 25 23 24 25 25 25 25 25 26 26 26 26 26 25 25 25 25 25 25 25 26 25 25 25 25 25 25 25 25 25 25 25 26 26 26 26 27 27 27
24 24 24 25 25 25 25 25 26 26 26 26 26 26 26 26 26 26 26 26 26 26 26 26 26 26 26 26 26 26 26 26 26 26 26 26 26 26 27 27 27 27 28 28
24 24 24 25 25 26 26 27 27 27 27 28 28 27 27 27 27 26 27 27 27 27 27 26 26 27 27 27 27 27 27 27 27 27 27 26 26 27 27 27 27 27 28 28
25 25 25 25 25 26 27 27 27 27 27 28 27 27 26 27 27 27 27 27 27 27 27 26 27 26 26 27 27 27 27 28 28 27 26 26 27 27 27 27 27 28 29 30
25 26 26 26 26 27 27 27 27 27 27 28 27 27 26 27 27 27 28 28 28 27 27 27 27 27 27 28 27 27 28 28 27 27 27 27 27 27 27 27 28 28 29 30
Wind_Direction
278 275 271 270 275 276 273 271 273 277 283 284 285 285 285 281 280 282 280 277 276 275 276 278 276 278 279 281 282 284 285 287 287 287 287 286 284 284 279 280 280 277 274 273
281 278 273 270 272 272 274 273 274 278 282 284 286 288 287 283 280 281 281 278 275 275 276 277 276 277 278 279 280 281 283 284 284 284 284 285 286 286 286 285 282 280 276 274
276 280 277 273 271 274 275 276 279 282 283 288 289 288 285 284 283 281 280 277 276 278 276 276 276 276 277 279 279 280 282 283 282 283 284 284 286 284 285 288 287 284 282 278
274 278 278 274 274 275 274 276 281 284 283 287 291 293 293 289 288 284 281 278 276 278 280 278 276 277 278 280 281 281 283 282 281 283 284 283 283 284 283 285 287 287 284 282
273 275 277 277 276 276 275 280 284 286 286 289 293 293 294 291 288 288 284 281 281 280 281 281 280 280 277 279 280 281 282 283 283 285 285 284 283 282 281 282 284 285 285 284
272 275 275 276 277 279 280 284 285 286 289 292 296 289 287 290 290 290 288 287 285 282 282 282 281 279 277 280 280 282 283 284 285 285 284 283 281 282 283 283 284 284 282 281
274 276 274 272 271 275 279 285 287 288 291 294 291 284 282 289 289 290 292 290 285 282 281 282 281 281 280 280 282 283 283 285 286 285 284 283 282 281 282 282 283 283 282 281
274 276 274 272 273 275 277 280 282 280 277 281 283 284 288 291 288 290 293 293 291 288 283 280 280 281 281 282 282 283 285 287 288 288 286 284 284 284 283 283 283 282 281 281
270 274 274 271 273 274 275 275 277 277 274 271 274 282 287 289 289 291 293 295 294 291 286 282 283 282 281 282 283 284 286 288 289 289 288 287 285 284 283 284 285 284 284 282
270 273 272 269 270 271 270 271 270 272 273 271 275 282 283 290 294 291 291 293 293 291 288 285 284 284 284 283 284 286 286 287 289 290 289 288 286 284 284 283 284 286 285 283
270 272 275 271 269 270 270 270 270 272 273 272 269 271 278 285 288 288 286 288 290 291 290 286 286 286 287 287 286 286 288 289 289 290 291 289 287 286 286 284 284 284 282 281
267 270 274 274 270 271 273 273 270 267 269 270 271 272 275 281 285 287 288 289 291 290 291 290 289 287 287 288 288 289 291 291 290 290 290 288 287 287 286 286 284 281 280 277
264 265 269 272 272 271 273 273 272 270 269 268 269 273 276 279 283 287 288 289 289 290 291 291 290 289 289 290 290 291 292 293 292 292 290 287 286 286 286 285 283 279 279 279
263 263 262 265 267 268 270 270 271 271 270 268 267 271 274 278 282 285 288 288 287 289 290 291 290 290 290 291 291 292 293 292 293 294 291 287 285 285 284 283 283 280 279 279
261 262 263 263 265 267 266 269 269 269 270 270 270 269 273 277 279 282 285 288 289 289 290 291 293 292 292 292 292 291 291 291 291 292 290 288 286 284 281 279 280 279 278 277
262 263 264 264 265 266 267 269 270 272 271 271 272 272 275 277 279 281 284 285 286 287 289 292 294 294 293 293 293 292 291 291 291 292 291 291 288 284 281 278 277 277 277 278
261 262 263 266 267 268 268 271 272 271 270 272 273 275 276 277 279 281 283 283 284 287 288 290 292 294 295 295 294 293 292 292 292 293 291 289 288 284 281 279 277 277 277 278
259 261 264 266 268 268 271 272 272 273 274 275 276 276 276 278 281 282 283 284 285 287 288 289 291 293 294 295 295 294 293 292 291 291 291 290 288 285 281 279 278 277 277 278
262 262 263 266 268 269 270 271 273 275 275 276 276 277 277 278 280 281 282 283 284 287 288 290 291 292 293 294 295 294 293 292 290 289 288 289 288 285 283 280 278 277 276 276
263 262 263 262 264 268 271 273 274 275 277 279 278 278 279 278 279 281 283 283 285 287 288 289 290 291 293 293 294 293 293 292 291 289 288 287 285 285 282 280 278 277 276 276
262 261 262 264 265 267 272 275 275 276 279 280 280 280 280 280 280 282 283 284 285 286 287 287 288 290 292 293 294 293 292 291 291 290 289 287 285 284 283 281 279 278 278 277
263 264 264 264 266 267 271 274 275 278 279 280 280 279 280 281 281 282 284 285 285 286 287 287 287 289 290 291 291 291 292 292 291 290 290 289 286 284 283 282 280 279 279 278
265 267 267 262 264 268 270 273 276 278 279 279 279 279 280 281 282 281 282 284 284 285 286 286 287 287 288 289 289 289 290 290 289 289 289 288 287 287 285 282 280 279 279 278
265 266 266 263 264 267 269 271 274 277 278 279 280 281 281 282 282 283 282 283 285 285 285 285 286 286 286 287 287 288 290 291 290 289 289 289 289 289 289 286 282 280 279 279
265 266 266 267 268 269 270 272 275 277 278 279 280 281 282 282 282 282 283 283 285 286 285 284 285 286 286 287 286 287 289 290 290 289 288 288 289 290 290 288 286 283 281 279
267 267 267 267 269 269 270 272 274 276 277 278 279 280 281 282 283 284 284 285 284 284 284 286 287 288 287 287 287 287 288 288 288 288 288 288 289 290 290 288 286 286 284 282
Height
5828 5829 5828 5828 5828 5829 5830 5830 5830 5830 5829 5829 5828 5828 5828 5828 5828 5828 5828 5827 5827 5827 5827 5827 5828 5828 5828 5828 5828 5827 5826 5827 5827 5827 5826 5826 5826 5825 5825 5825 5824 5824 5824 5824
5826 5826 5827 5826 5827 5827 5827 5827 5827 5827 5827 5826 5826 5825 5825 5825 5824 5824 5824 5824 5824 5824 5824 5824 5824 5824 5825 5825 5825 5824 5824 5824 5824 5823 5823 5822 5822 5822 5822 5821 5820 5820 5820 5820
5824 5825 5824 5824 5824 5825 5825 5825 5825 5825 5824 5823 5823 5823 5822 5822 5821 5821 5821 5821 5821 5821 5821 5821 5821 5821 5821 5821 5821 5821 5820 5820 5820 5819 5819 5818 5818 5818 5818 5817 5817 5816 5816 5816
5822 5822 5822 5822 5822 5822 5823 5823 5822 5822 5822 5821 5821 5820 5819 5818 5818 5818 5818 5818 5817 5817 5817 5817 5817 5817 5818 5818 5817 5817 5817 5816 5816 5815 5815 5814 5814 5814 5813 5813 5812 5812 5811 5811
5820 5820 5820 5820 5821 5820 5820 5820 5820 5820 5819 5819 5818 5817 5817 5816 5815 5815 5815 5814 5814 5813 5814 5814 5814 5814 5814 5814 5814 5814 5813 5812 5812 5811 5811 5810 5810 5809 5809 5808 5808 5808 5807 5806
5818 5818 5818 5818 5818 5818 5818 5818 5817 5817 5816 5816 5816 5815 5815 5813 5813 5812 5812 5811 5811 5810 5810 5810 5810 5810 5811 5811 5810 5810 5809 5809 5808 5808 5807 5806 5806 5805 5804 5804 5803 5802 5801 5801
5815 5815 5815 5816 5816 5816 5815 5815 5815 5814 5814 5814 5814 5813 5813 5811 5810 5810 5809 5808 5807 5807 5807 5807 5807 5807 5807 5807 5807 5806 5805 5805 5804 5803 5803 5802 5802 5801 5799 5798 5798 5796 5795 5795
5812 5812 5812 5812 5813 5813 5812 5813 5813 5812 5813 5813 5811 5810 5810 5808 5807 5807 5806 5805 5805 5804 5804 5804 5804 5803 5804 5803 5803 5802 5801 5801 5800 5799 5798 5797 5797 5796 5795 5793 5792 5791 5790 5790
5809 5810 5809 5809 5809 5810 5809 5809 5810 5809 5809 5809 5809 5808 5806 5805 5804 5804 5803 5802 5802 5801 5801 5800 5800 5800 5800 5799 5799 5798 5797 5796 5795 5794 5793 5792 5791 5790 5789 5788 5787 5786 5785 5784
5806 5806 5806 5806 5806 5806 5807 5806 5806 5806 5806 5805 5806 5805 5804 5802 5801 5801 5800 5799 5798 5798 5797 5797 5796 5796 5796 5795 5795 5794 5793 5792 5791 5790 5788 5787 5786 5785 5784 5782 5781 5780 5779 5778
5802 5802 5803 5802 5802 5802 5803 5803 5802 5802 5802 5802 5802 5804 5801 5799 5799 5797 5797 5796 5795 5794 5794 5793 5793 5792 5791 5791 5790 5789 5788 5787 5786 5784 5783 5781 5780 5779 5777 5776 5775 5775 5774 5773
5798 5798 5798 5799 5799 5798 5799 5799 5799 5799 5799 5799 5798 5801 5797 5796 5795 5794 5793 5792 5791 5791 5790 5789 5788 5788 5787 5786 5785 5784 5783 5782 5780 5779 5778 5776 5774 5773 5771 5770 5769 5768 5768 5767
5794 5795 5795 5795 5796 5796 5795 5795 5795 5795 5795 5795 5795 5797 5793 5792 5791 5790 5789 5789 5787 5786 5785 5785 5784 5783 5782 5781 5780 5779 5778 5776 5775 5774 5772 5770 5768 5767 5765 5764 5763 5762 5762 5762
5789 5790 5791 5792 5791 5791 5791 5791 5791 5791 5790 5790 5791 5791 5789 5788 5787 5786 5785 5784 5784 5782 5781 5780 5779 5778 5777 5776 5775 5774 5772 5771 5769 5768 5766 5764 5762 5761 5759 5758 5758 5757 5757 5756
5785 5786 5786 5786 5786 5786 5787 5786 5786 5786 5786 5786 5787 5786 5785 5784 5783 5782 5780 5779 5778 5777 5776 5775 5774 5773 5772 5770 5769 5768 5766 5765 5763 5761 5760 5758 5757 5755 5754 5753 5752 5752 5751 5751
5780 5781 5781 5781 5781 5781 5781 5782 5782 5782 5781 5781 5781 5781 5780 5779 5777 5776 5775 5774 5773 5772 5771 5770 5768 5767 5766 5764 5763 5762 5760 5758 5757 5755 5754 5752 5751 5750 5749 5748 5747 5747 5746 5746
5775 5776 5776 5776 5776 5776 5776 5777 5777 5777 5776 5776 5775 5776 5774 5773 5772 5771 5770 5769 5768 5767 5766 5764 5763 5761 5760 5758 5756 5755 5753 5752 5750 5749 5747 5746 5745 5744 5743 5742 5742 5741 5741 5741
5770 5770 5770 5770 5771 5770 5773 5772 5772 5771 5771 5770 5769 5768 5768 5767 5766 5765 5764 5763 5762 5761 5760 5758 5756 5755 5753 5751 5750 5748 5747 5745 5744 5742 5741 5740 5739 5738 5737 5736 5736 5735 5735 5735
5764 5764 5764 5764 5764 5764 5766 5766 5766 5765 5764 5764 5763 5762 5761 5761 5760 5759 5757 5756 5755 5754 5753 5751 5750 5748 5747 5745 5743 5742 5740 5738 5737 5736 5734 5733 5732 5731 5730 5729 5729 5729 5728 5728
5757 5757 5758 5758 5758 5758 5760 5760 5759 5759 5758 5758 5757 5756 5755 5754 5754 5753 5751 5750 5749 5747 5746 5745 5743 5741 5740 5738 5736 5734 5733 5731 5730 5728 5727 5726 5725 5724 5723 5722 5722 5721 5721 5721
5750 5751 5751 5751 5751 5751 5754 5753 5753 5754 5753 5751 5749 5749 5748 5747 5746 5746 5744 5743 5741 5740 5738 5737 5736 5734 5732 5731 5729 5727 5726 5724 5723 5721 5720 5719 5718 5717 5716 5715 5714 5714 5714 5713
5743 5744 5745 5745 5745 5747 5747 5746 5746 5746 5744 5743 5742 5741 5740 5739 5738 5737 5736 5735 5734 5732 5731 5729 5728 5727 5725 5723 5721 5720 5719 5717 5715 5714 5713 5711 5710 5709 5708 5707 5706 5706 5705 5705
5737 5738 5737 5738 5740 5739 5739 5739 5738 5738 5737 5736 5735 5735 5733 5732 5731 5730 5729 5728 5726 5725 5723 5722 5720 5719 5718 5716 5714 5712 5711 5709 5708 5706 5705 5703 5702 5701 5699 5698 5698 5697 5696 5696
5730 5730 5730 5730 5731 5731 5731 5731 5731 5730 5730 5729 5728 5727 5726 5725 5723 5722 5721 5720 5718 5717 5715 5714 5712 5711 5710 5708 5706 5704 5703 5701 5699 5698 5697 5695 5694 5692 5691 5690 5689 5688 5687 5686
5723 5723 5723 5723 5724 5724 5724 5723 5723 5723 5722 5721 5720 5719 5718 5717 5716 5715 5714 5712 5711 5709 5707 5706 5704 5703 5701 5700 5698 5696 5694 5692 5691 5690 5688 5687 5686 5684 5683 5681 5680 5679 5678 5677
5716 5716 5716 5716 5716 5716 5716 5715 5715 5715 5714 5713 5712 5712 5711 5709 5708 5707 5706 5704 5703 5701 5700 5698 5696 5695 5693 5691 5690 5688 5686 5684 5683 5681 5680 5679 5677 5676 5674 5673 5672 5670 5669 5668